Location: Boiro
(42.6475°N, 8.8834°W)
Time: 18:20:26
(UTC+01:00)

Altair - Pass Details

Date: 04 December 2021
Orbit: 1501 x 1683 km, 47.2° (Epoch: 25 January)

Event Time Altitude Azimuth Distance (km) Brightness Sun altitude
Rises 18:18:17 0° 254° (WSW) 4,768 12.3 -3.4°
Reaches altitude 10° 18:21:25 10° 256° (WSW) 3,761 11.3 -3.9°
Maximum altitude 18:30:55 78° 343° (NNW) 1,562 7.6 -5.5°
Drops below altitude 10° 18:40:10 10° 70° (ENE) 3,662 8.8 -7.0°
Enters shadow 18:40:45 - 70° (ENE) 3,849 8.9 -7.1°
Sets 18:43:11 0° 72° (ENE) 4,638 - -7.5°
